Overview Statistics Trail Chart Weather Telemetry Raw packets
 

This is the latest recevied weather packets stored in our database for station/object IQ5VK-13. If no packets are shown the sender has not sent any weather packets the latest 10 day(s).

<< 1 2 3 4 5 >>
Time Temp. Humidity Pressure Rain* Wind** Luminosity Snow
1788537168 28.89° C 44% 1023.4 hPa - - - -
1788535967 28.89° C 43% 1023.6 hPa - - - -
1788533567 29.44° C 42% 1023.6 hPa - - - -
1788532367 29.44° C 41% 1023.7 hPa - - - -
1788531166 30° C 43% 1023.7 hPa - - - -
1788529966 30.56° C 39% 1023.6 hPa - - - -
1788528766 31.11° C 35% 1023.8 hPa - - - -
1788527565 30.56° C 36% 1023.9 hPa - - - -
1788526371 30° C 44% 1024.1 hPa - - - -
1788523970 29.44° C 39% 1024.3 hPa - - - -
1788522769 29.44° C 44% 1024.3 hPa - - - -
1788521569 29.44° C 41% 1024.4 hPa - - - -
1788520369 28.33° C 43% 1024.5 hPa - - - -
1788519169 29.44° C 49% 1024.4 hPa - - - -
1788517968 29.44° C 50% 1024.3 hPa - - - -
1788516768 30° C 50% 1024.5 hPa - - - -
1788515568 30.56° C 46% 1024.5 hPa - - - -
1788514367 33.33° C 36% 1024.6 hPa - - - -
1788513167 33.33° C 35% 1024.6 hPa - - - -
1788511967 33.33° C 34% 1024.6 hPa - - - -
1788510767 32.78° C 35% 1024.5 hPa - - - -
1788509569 32.78° C 35% 1024.4 hPa - - - -
1788508366 32.22° C 36% 1024.2 hPa - - - -
1788507166 31.67° C 36% 1024 hPa - - - -
1788505965 31.11° C 38% 1023.8 hPa - - - -

* Rain since midnight (hover to see other rain measurements)
** Current wind speed in m/s (hover to see current wind gust speed)